Regional Weather Roundup
Issued by NWS Little Rock, AR

Home | Current Version | Previous Version | Text Only | Print | Product List | Glossary Off
Versions: 1 2 3 4 5 6 7 8 9 10 11 12 13 14 15 16 17 18 19 20 21 22 23 24 25 26 27 28 29 30 31 32

000
ASUS44 KLZK 220805
RWRLZK

WEATHER ROUNDUP FOR ARKANSAS
NATIONAL WEATHER SERVICE LITTLE ROCK AR
200 AM CST WED NOV 22 2017

NOTE: "FAIR" INDICATES FEW OR NO CLOUDS BELOW 12,000 FEET WITH NO
SIGNIFICANT WEATHER AND/OR OBSTRUCTIONS TO VISIBILITY.

ARZ001-003-010-029-220900-
NORTHWEST ARKANSAS

CITY           SKY/WX    TMP DP  RH WIND       PRES   REMARKS
FAYETTEVILLE   CLEAR     33  20  58 N8        30.31R WCI  26
FORT SMITH     CLEAR     43  19  38 N10       30.28R
HARRISON       CLEAR     32  20  61 N8        30.28R WCI  25
BENTONVILLE    CLEAR     31  21  66 N9        30.34R WCI  23
ROGERS         CLEAR     30  21  69 N6        30.33R WCI  24
SILOAM SPGS    CLEAR     30  21  69 N9        30.33R WCI  22
HIGHFILL       CLEAR     30  20  66 N9        30.32R WCI  22
$$

ARZ004-005-016-220900-
NORTH CENTRAL ARKANSAS

CITY           SKY/WX    TMP DP  RH WIND       PRES   REMARKS
BATESVILLE     CLEAR     42  22  44 VRB6      30.25S
FLIPPIN        CLEAR     37  20  50 N10       30.30R
MTN HOME       CLEAR     34  21  59 N6        30.28R WCI  29
$$

ARZ040-041-220900-
WEST CENTRAL ARKANSAS

CITY           SKY/WX    TMP DP  RH WIND       PRES   REMARKS
MENA           CLEAR     48  34  57 NE9       30.23R
MOUNT IDA      CLEAR     46  34  62 CALM      30.21R
$$

ARZ009-017-025-026-028-220900-
NORTHEAST ARKANSAS

CITY           SKY/WX    TMP DP  RH WIND       PRES   REMARKS
CORNING        PTSUNNY   37  25  60 N10       30.26R
JONESBORO      CLEAR     42  27  55 N10       30.23S
WALNUT RIDGE     N/A     39  24  55 N10       30.25R
BLYTHEVILLE    CLEAR     37  29  72 N16G23    30.25R
$$

ARZ022-023-033-042-044-220900-
CENTRAL ARKANSAS

CITY           SKY/WX    TMP DP  RH WIND       PRES   REMARKS
LITTLE ROCK    CLEAR     45  27  49 N8        30.23R
N LITTLE ROCK    N/A     45  27  49 N8        30.25R
JACKSONVILLE   CLEAR     45  28  50 N6        30.23R
SEARCY         CLEAR     44  25  47 N8        30.25R
HOT SPRINGS    CLEAR     50  33  52 NE7       30.23R
RUSSELLVILLE   CLEAR     45  24  43 N5        30.25R
CLINTON        FAIR      43  23  45 CALM      30.26R
$$

ARZ036-220900-
EAST ARKANSAS

CITY           SKY/WX    TMP DP  RH WIND       PRES   REMARKS
WEST MEMPHIS   CLEAR     42  29  59 N12       30.20R
$$

ARZ050-053-066-070-073-220900-
SOUTHWEST ARKANSAS

CITY           SKY/WX    TMP DP  RH WIND       PRES   REMARKS
ARKADELPHIA    FAIR      47  37  68 N5        30.23R
CAMDEN         MOCLDY    48  37  66 N6        30.20R
TEXARKANA      CLEAR     45  45 100 CALM      30.20R
EL DORADO      CLEAR     51  42  71 N8        30.19R
DE QUEEN       CLEAR     49  37  63 N8        30.20S
$$

ARZ056-057-069-220900-
SOUTHEAST ARKANSAS

CITY           SKY/WX    TMP DP  RH WIND       PRES   REMARKS
PINE BLUFF     CLEAR     47  36  65 N8        30.21R
STUTTGART      CLEAR     43  37  79 NE5       30.23R
MONTICELLO     CLEAR     50  39  66 N8        30.17R

$$






USA.gov is the U.S. government's official web portal to all federal, state and local government web resources and services.